Roanoke Regional Woodrum Field
KROA : rendu visible

Aérodrome :











RETROUVEZ-NOUS SUR...

 
LOGIN :

S'inscrire | Disclaimer

   EN    FR    IT 

 









Légende :    VFR   VFR Marginal   IFR   IFR Intensif   IFR Très Intensif
Visi : 
Plafond : 
>= 8 km
>= 3000ft
5 à 8 km
1000 à 3000 ft
1500m à 5 km
500 à 1000 ft
800 à 1500m
200 à 500 ft
< 800m
< 200 ft
Symboles :   Orages  Brouillard  Fortes neiges  Fortes précipitations  Vent > 20 kt






- Altitude de l'aérodrome : 1175 ft
- Code IATA : ROA


KROA - Roanoke Regional Woodrum Field

DERNIER METAR :
  • 031354Z 30010G25KT 10SM FEW044 28/16 A2995 RMK AO2 SLP127 T02780161

METARs EXPIRÉS :
  • 031254Z 29012G32KT 10SM FEW043 27/17 A2997 RMK AO2 PK WND 30032/1249 SLP133 T02720167
  • 031154Z 25007G16KT 10SM FEW043 25/17 A2998 RMK AO2 SLP137 T02500172 10256 20228 50001

TAF KROA
Valide du 03 à 13h jusqu'au 04 à 12h UTC


031322Z 0313/0412 27012G30KT P6SM FEW045
FM032300 26007KT P6SM FEW100 BKN250
FIR KZDC / Amérique du Nord



MET'MAP, la Météo Aéronautique d'un coup d'oeil ! - Copyright ORBIFLY Décembre 2007 - Disclaimer

ORBIFLY MET'MAP TEAM :

Programmation & Développement : Alexandra Zaïnal
Sur une idée originale de : Baudouin d'Aumeries
Assistance à la programmation : Marc-Olivier Méhu
Soutien technique & logistique : Manuel Goepfert

Contact : metmap@orbifly.com




SOURCES & CREDITS :

   NOAA       Earth
Advisory